Location: Goettingen
(51.5300°N, 9.9433°E)
Time: 16:05:47
(UTC+02:00)

ISS - Pass Details

Date: 26 May 2020
Orbit: 417 x 420 km, 51.6° (Epoch: 25 May)

Event Time Altitude Azimuth Distance (km) Brightness Sun altitude
Rises 23:55:38 0° 284° (WNW) 2,368 0.6 -15.1°
Reaches altitude 10° 23:57:51 10° 275° (W) 1,502 -0.6 -15.3°
Maximum altitude 00:00:56 34° 208° (SSW) 707 -3.0 -15.4°
Enters shadow 00:01:21 33° 191° (S) 729 -3.0 -15.4°
